Regional Weather Roundup
Issued by NWS Cleveland, OH

Home | Current Version | Previous Version | Text Only | Print | Product List | Glossary On
Versions: 1 2 3 4 5 6 7 8 9 10 11 12 13 14 15 16 17 18 19 20 21 22 23 24 25 26 27 28 29 30 31 32 33 34 35 36 37 38 39 40 41 42 43 44 45 46 47 48 49 50
000
ASUS41 KCLE 191112
RWRCLE
OHIO REGIONAL WEATHER ROUNDUP
NATIONAL WEATHER SERVICE WILMINGTON, OH
700 AM EDT SAT AUG 19 2017

NOTE: "FAIR" INDICATES FEW OR NO CLOUDS BELOW 12,000 FEET WITH NO
SIGNIFICANT WEATHER AND/OR OBSTRUCTIONS TO VISIBILITY.

OHZ001>008-015>018-024>027-034-035-043-044-191200-
   NORTHWEST OHIO

CITY           SKY/WX    TMP DP  RH WIND       PRES   REMARKS
DEFIANCE       FAIR      60  59  96 CALM      29.90R
FINDLAY        FAIR      65  60  84 SW5       29.89F
TOLEDO EXPRESS FAIR      63  63 100 S6        29.88R
TOLEDO EXEC    FAIR      65  64  97 CALM      29.87F
LIMA           FAIR      67  64  90 S5        29.92R
$$

OHZ009>014-019>023-028>033-038-089-191200-
   NORTHEAST OHIO

CITY           SKY/WX    TMP DP  RH WIND       PRES   REMARKS
CLE-HOPKINS    CLOUDY    66  62  87 SW7       29.91R
CLE-LAKEFRONT  FAIR      68  62  81 S6        29.87S
CUY CO. ARPT   PTCLDY    68  63  83 SW7       29.89
LORAIN-ELYRIA  FAIR      61  57  87 SW3       29.90R
ASHTABULA      FAIR      63  63 100 CALM      29.89S
AKRON-CANTON   MOCLDY    65  60  84 SW5       29.91F
WOOSTER        FAIR      60  60 100 CALM      29.92S
MANSFIELD      FAIR      64  63  96 S7        29.91S
YOUNGSTOWN     FAIR      62  60  93 S3        29.90F
$$

OHZ042-051>053-060>062-070>072-077>081-191200-
  SOUTHWEST OHIO

CITY           SKY/WX    TMP DP  RH WIND       PRES   REMARKS
CINC-COVINGTON CLOUDY    67  67 100 S3        29.95S
CINC-LUNKEN    FAIR      66  66 100 CALM      29.95S
HAMILTON       LGT RAIN  67  66  97 CALM      29.94F
DAYTON         CLOUDY    69  64  84 SW8       29.95R
WRIGHT-PAT AFB LGT RAIN  68  67  98 S5        29.93S
DAYTON GENERAL LGT RAIN  69  64  84 SE7       29.93F
WILMINGTON     FAIR      65  65 100 SW5       29.96R
$$

OHZ036-037-039>041-045>050-054>059-063>069-073>076-082>088-191200-
  CENTRAL AND SOUTHEAST OHIO

CITY           SKY/WX    TMP DP  RH WIND       PRES   REMARKS
COLUMBUS       CLOUDY    67  66  97 S6        29.93R
OSU AIRPORT    FAIR      67  66  97 S6        29.92R
BOLTON FIELD   NOT AVBL
RICKENBACK AFB FAIR      65  65  99 S6        29.94R
NEWARK         FAIR      66  63  90 S5        29.92S
MARION         MOCLDY    64  62  93 SW6       29.92R
LANCASTER      FAIR      66  64  93 S5        29.94R
ZANESVILLE     FAIR      65  62  90 CALM      29.93S
NEW PHILLY     FAIR      64  64 100 CALM      29.93R FOG
$$



USA.gov is the U.S. government's official web portal to all federal, state and local government web resources and services.